Location: Aldenham
(51.6667°N, 0.3500°W)
Time: 16:05:34
(UTC+00:00)

Vanguard 2 Rocket - Pass Details

Date: 24 February 2026
Orbit: 553 x 3286 km, 32.9° (Epoch: 11 March)

Event Time Altitude Azimuth Distance (km) Brightness Sun altitude
Rises 13:36:59 0° 256° (WSW) 7,262 12.0 26.5°
Reaches altitude 10° 13:42:32 10° 250° (WSW) 6,187 11.9 26.1°
Maximum altitude 13:58:43 37° 193° (SSW) 3,719 11.8 25.0°
Drops below altitude 10° 14:10:19 10° 133° (SE) 4,465 10.6 24.1°
Sets 14:13:35 0° 125° (SE) 5,115 10.8 23.9°
